Location: Cluj-Napoca
(46.7712°N, 23.6236°E)
Time: 12:18:08
(UTC+03:00)

ISS - Pass Details

Date: 12 May 2021
Orbit: 417 x 422 km, 51.6° (Epoch: 15 May)

Event Time Altitude Azimuth Distance (km) Brightness Sun altitude
Exits shadow 03:51:12 - 294° (WNW) 2,067 -0.4 -16.9°
Reaches altitude 10° 03:52:37 10° 300° (WNW) 1,505 -1.0 -16.7°
Maximum altitude 03:55:51 42° 13° (NNE) 611 -2.5 -16.4°
Drops below altitude 10° 03:59:06 10° 86° (E) 1,505 -0.4 -16.1°
Sets 04:01:16 0° 94° (E) 2,368 0.6 -15.8°
